Fort Wayne, IN

9:42 PM EDT on August 24, 2019 (GMT -0400)
Fort Wayne International

Weather History for KFWA - June, 2019

Change the Weather History Date:

Friday, June 7, 2019

  Actual Average Record
Temperature  
Mean Temperature 70 °F 68 °F  
Max Temperature 81 °F 79 °F 97 °F (2011)
Min Temperature 58 °F 57 °F 41 °F (1910)
Degree Days  
Heating Degree Days 0 2  
Month to date heating degree days 7 16  
Since 1 June heating degree days 7 16  
Since 1 July heating degree days 5854 6088  
Cooling Degree Days 5 4  
Month to date cooling degree days 29 27  
Year to date cooling degree days 97 84  
Since 1 June cooling degree days 29 27  
Growing Degree Days 19 (Base 50)    
Moisture  
Dew Point 56 °F    
Average Humidity 66    
Maximum Humidity 93    
Minimum Humidity 38    
Precipitation  
Precipitation 0.00 in 0.15 in 1.12 in (1919)
Month to date precipitation 0.24 1.09  
Year to date precipitation 18.11 15.89  
Sea Level Pressure  
Sea Level Pressure 29.95 in    
Wind  
Wind Speed 14 mph (ENE)    
Max Wind Speed 25 mph    
Max Gust Speed 35 mph    
Visibility 7 miles    
Events      
T = Trace of Precipitation, MM = Missing Value Source: NWS Daily Summary

Daily Weather History Graph

Daily Weather History Graph

Search for Another Location

Airport or City:

Astronomy

Jun. 07, 2019 Rise Set
Actual Time 6:09 AM EDT 9:10 PM EDT
Civil Twilight 5:35 AM EDT 9:43 PM EDT
Nautical Twilight 4:53 AM EDT 10:26 PM EDT
Astronomical Twilight 4:04 AM EDT 11:15 PM EDT
Moon 10:25 AM EDT (6/7) 12:26 AM EDT (6/7)
Length of Visible Light 16h 08m
Length of Day
15h 01m
Waxing Crescent, 22% of the Moon is Illuminated
Jun 7
Waxing Crescent
Jun 10
First Quarter
Jun 17
Full
Jun 25
Last Quarter
Jul 2
New

Hourly Weather History & Observations

Time (EDT) Temp. Heat Index Dew Point Humidity Pressure Visibility Wind Dir Wind Speed Gust Speed Precip Events Conditions
12:54 AM 63.0 °F - 60.1 °F 90% 29.93 in 7.0 mi East 5.8 mph - N/A   Mostly Cloudy
1:54 AM 61.0 °F - 57.9 °F 90% 29.92 in 5.0 mi East 5.8 mph - N/A   Mostly Cloudy
2:54 AM 59.0 °F - 57.0 °F 93% 29.93 in 3.0 mi East 4.6 mph - N/A   Mostly Cloudy
3:04 AM 59.0 °F - 57.0 °F 93% 29.93 in 3.0 mi East 3.5 mph - N/A   Mostly Cloudy
3:54 AM 59.0 °F - 57.0 °F 93% 29.92 in 2.5 mi NE 4.6 mph - N/A   Mostly Cloudy
4:54 AM 57.9 °F - 55.9 °F 93% 29.92 in 2.0 mi NE 5.8 mph - N/A   Scattered Clouds
5:54 AM 59.0 °F - 57.0 °F 93% 29.93 in 1.8 mi NE 6.9 mph - N/A   Scattered Clouds
6:54 AM 59.0 °F - 57.0 °F 93% 29.94 in 1.8 mi NE 8.1 mph - N/A   Scattered Clouds
7:17 AM 60.1 °F - 57.9 °F 93% 29.96 in 2.5 mi ENE 8.1 mph - N/A   Scattered Clouds
7:43 AM 61.0 °F - 57.9 °F 90% 29.96 in 3.0 mi ENE 6.9 mph - N/A   Mostly Cloudy
7:54 AM 61.0 °F - 57.9 °F 90% 29.95 in 4.0 mi ENE 9.2 mph - N/A   Mostly Cloudy
8:54 AM 66.0 °F - 59.0 °F 78% 29.96 in 7.0 mi East 12.7 mph - N/A   Mostly Cloudy
9:54 AM 66.9 °F - 57.0 °F 70% 29.97 in 9.0 mi ENE 13.8 mph 20.7 mph N/A   Mostly Cloudy
10:54 AM 73.0 °F - 59.0 °F 61% 29.97 in 10.0 mi ENE 13.8 mph 24.2 mph N/A   Mostly Cloudy
11:54 AM 75.0 °F - 59.0 °F 57% 29.98 in 10.0 mi NE 18.4 mph 31.1 mph N/A   Scattered Clouds
12:54 PM 77.0 °F - 57.0 °F 50% 29.96 in 10.0 mi ENE 18.4 mph 29.9 mph N/A   Mostly Cloudy
1:54 PM 79.0 °F - 57.9 °F 48% 29.95 in 10.0 mi ENE 20.7 mph 29.9 mph N/A   Scattered Clouds
2:54 PM 80.1 °F 80.2 °F 55.9 °F 43% 29.94 in 10.0 mi ENE 20.7 mph 32.2 mph N/A   Scattered Clouds
3:54 PM 80.1 °F 80.4 °F 57.0 °F 45% 29.94 in 10.0 mi ENE 18.4 mph 29.9 mph N/A   Scattered Clouds
4:54 PM 80.1 °F 80.4 °F 57.0 °F 45% 29.92 in 10.0 mi ENE 19.6 mph 29.9 mph N/A   Partly Cloudy
5:54 PM 79.0 °F - 54.0 °F 42% 29.92 in 10.0 mi ENE 21.9 mph 32.2 mph N/A   Scattered Clouds
6:54 PM 77.0 °F - 53.1 °F 43% 29.91 in 10.0 mi ENE 19.6 mph 28.8 mph N/A   Scattered Clouds
7:54 PM 75.9 °F - 48.9 °F 38% 29.94 in 10.0 mi ENE 20.7 mph 28.8 mph N/A   Scattered Clouds
8:54 PM 73.0 °F - 50.0 °F 44% 29.95 in 10.0 mi ENE 16.1 mph - N/A   Scattered Clouds
9:54 PM 71.1 °F - 51.1 °F 49% 29.96 in 10.0 mi ENE 13.8 mph 24.2 mph N/A   Mostly Cloudy
10:54 PM 69.1 °F - 53.1 °F 57% 29.98 in 10.0 mi ENE 11.5 mph - N/A   Mostly Cloudy
11:54 PM 66.9 °F - 53.1 °F 61% 29.99 in 10.0 mi ENE 11.5 mph - N/A   Mostly Cloudy